This is the latest recevied weather packets stored in our database for station/object N7QNM-13. If no packets are shown the sender has not sent any weather packets the latest 10 day(s).
| Time | Temp. | Humidity | Pressure | Rain* | Wind** | Luminosity | Snow |
|---|---|---|---|---|---|---|---|
| 1777930275 | 30.56° C | 28% | 1006.1 hPa | 0 mm | - | 785 W/m² | - |
| 1777926076 | 30.56° C | 32% | 1006.9 hPa | 0 mm | - | 831 W/m² | - |
| 1777924296 | 29.44° C | 32% | 1007.2 hPa | 0 mm | - | 860 W/m² | - |
| 1777922478 | 28.89° C | 33% | 1007.3 hPa | 0 mm | - | 851 W/m² | - |
| 1777919477 | 27.78° C | 35% | 1007.7 hPa | 0 mm | - | 808 W/m² | - |
| 1777913419 | 23.33° C | 40% | 1008 hPa | 0 mm | - | 617 W/m² | - |
| 1777912839 | 22.78° C | 41% | 1008 hPa | 0 mm | - | 594 W/m² | - |
| 1777910420 | 21.11° C | 44% | 1008.2 hPa | 0 mm | - | 384 W/m² | - |
| 1777908619 | 20° C | 49% | 1008.4 hPa | 0 mm | - | 389 W/m² | - |
| 1777908020 | 19.44° C | 52% | 1008.4 hPa | 0 mm | - | 345 W/m² | - |
| 1777906820 | 18.33° C | 59% | 1008.5 hPa | 0 mm | - | 273 W/m² | - |
| 1777904420 | 14.44° C | 74% | 1008.3 hPa | 0 mm | - | 174 W/m² | - |
| 1777896622 | 9.44° C | 81% | 1007.3 hPa | 0 mm | - | 0 W/m² | - |
| 1777894822 | 10° C | 81% | 1007.6 hPa | 0 mm | - | 0 W/m² | - |
| 1777893622 | 10.56° C | 80% | 1007.6 hPa | 0 mm | - | 0 W/m² | - |
| 1777887623 | 11.67° C | 76% | 1007.7 hPa | 0 mm | - | 0 W/m² | - |
| 1777876226 | 14.44° C | 64% | 1007.8 hPa | 0 mm | - | 0 W/m² | - |
| 1777872647 | 16.67° C | 58% | 1007.8 hPa | 0 mm | - | 0 W/m² | - |
| 1777872047 | 16.67° C | 57% | 1007.8 hPa | 0 mm | - | 0 W/m² | - |
| 1777866028 | 22.22° C | 39% | 1007.1 hPa | 0 mm | - | 0 W/m² | - |
| 1777864228 | 24.44° C | 38% | 1006.9 hPa | 0 mm | - | 6 W/m² | - |
| 1777853430 | 30° C | 31% | 1008.2 hPa | 0 mm | - | 405 W/m² | - |
| 1777847451 | 30.56° C | 31% | 1009.5 hPa | 0 mm | - | 662 W/m² | - |
| 1777843232 | 30° C | 30% | 1010.4 hPa | 0 mm | - | 789 W/m² | - |
| 1777840833 | 28.33° C | 32% | 1011 hPa | 0 mm | - | 834 W/m² | - |
* Rain latest hour (hover to see other rain measurements)
** Current wind speed in m/s (hover to see current wind gust speed)